GFSFLT2_700_spd_111.txt.gz
Wind_Speed
19 20 25 24 21 17 14 13 11 11 11 10 10 9 10 10 10 10 10 10 11 11 11 11 11 12 13 13 13 12 11 14
23 22 25 27 24 20 18 15 13 13 13 12 12 12 12 11 12 12 11 12 12 12 13 14 13 14 16 16 16 15 13 12
29 28 27 29 27 23 20 18 15 15 14 14 13 13 13 12 13 13 14 13 14 15 15 15 16 16 17 18 19 19 16 17
33 30 30 31 31 25 22 19 18 15 15 15 15 15 14 15 14 14 15 15 16 16 16 16 17 18 18 19 21 21 21 20
37 34 32 32 33 29 26 22 23 20 17 17 16 17 17 16 17 15 17 16 16 16 16 16 17 18 18 19 21 22 25 20
38 39 35 34 36 35 28 26 26 25 20 19 19 19 18 19 18 17 18 18 17 17 16 16 18 19 20 21 21 24 24 27
27 39 39 38 38 39 36 29 29 29 25 24 22 21 20 20 18 19 20 18 18 18 17 16 18 20 22 22 22 25 28 27
31 37 38 39 40 41 38 36 32 32 30 28 27 23 22 22 21 20 21 21 20 19 18 17 16 19 22 23 24 27 28 28
35 33 39 39 41 42 41 39 37 33 33 32 31 29 28 26 26 24 23 23 21 21 19 19 18 19 21 22 23 28 29 29
38 36 34 37 40 39 39 41 41 37 35 35 35 34 32 32 30 30 26 25 26 23 21 20 18 18 20 22 25 28 29 29
40 41 39 39 40 43 38 39 42 42 42 39 40 38 36 35 35 31 32 28 28 26 25 23 20 20 19 21 24 26 27 28
34 40 45 45 43 41 46 47 46 44 48 46 44 43 42 40 41 35 34 34 32 30 28 26 24 22 20 21 22 25 25 27
30 33 36 40 45 46 46 49 50 52 50 52 50 53 49 46 45 40 38 35 37 35 32 30 28 26 24 22 22 23 26 26
30 32 35 37 40 43 48 51 54 55 57 54 54 55 55 51 49 46 42 39 39 41 38 34 31 29 27 25 24 22 24 27
28 30 32 35 38 42 45 49 50 53 56 58 60 60 56 55 54 50 49 45 42 42 42 38 34 32 30 29 28 24 22 24
28 30 30 32 35 39 45 48 53 54 50 54 55 57 60 61 57 55 54 50 46 43 43 42 39 35 34 32 30 27 25 27
32 33 35 35 37 40 43 47 51 54 59 55 57 55 53 52 60 64 56 53 50 46 41 45 43 39 37 34 33 31 29 27
34 37 40 43 45 44 48 49 50 54 56 59 50 59 55 51 51 57 57 57 54 49 43 45 47 44 40 37 36 35 30 29
34 36 40 44 47 50 50 53 53 55 55 54 57 57 58 55 53 53 53 57 56 53 46 49 47 46 42 38 38 35 34 32
35 36 38 41 42 45 48 51 58 59 57 53 52 56 58 52 53 51 50 52 53 52 47 47 43 43 40 38 38 35 35 33

GFSFLT2_700_spd_117.txt.gz
Wind_Speed
22 21 27 29 29 27 25 23 19 15 14 14 13 13 12 10 9 9 9 9 9 9 9 10 10 11 11 9 9 7 11 7
26 23 25 29 30 29 27 26 22 18 17 16 16 15 15 13 11 9 9 9 10 10 11 11 12 12 11 11 11 9 11 11
28 26 25 28 30 31 30 29 27 22 20 18 17 16 15 15 13 11 10 10 10 10 11 12 12 13 12 12 11 11 12 15
29 32 30 28 30 33 33 32 30 25 22 20 18 17 16 16 16 14 12 11 11 10 11 13 12 13 13 13 13 13 17 16
28 34 37 33 30 32 34 34 32 28 24 22 21 19 19 18 18 16 14 13 12 11 12 12 14 14 14 14 13 15 19 17
28 27 33 38 34 34 34 36 34 32 27 25 23 21 20 20 18 18 17 15 14 14 12 14 14 15 14 13 14 15 18 16
27 30 28 29 37 39 40 35 36 35 32 28 26 24 23 21 21 19 19 18 17 16 16 16 16 15 16 14 13 14 19 18
31 34 36 32 28 34 36 38 38 38 37 33 29 28 27 26 24 22 21 20 20 19 17 17 18 18 16 14 13 14 14 17
33 33 31 34 34 24 41 39 32 36 35 36 33 30 28 29 28 26 24 24 24 21 20 20 20 19 18 15 14 15 15 16
38 33 33 34 34 39 39 25 32 36 35 38 40 34 31 31 32 31 29 29 28 26 23 22 21 21 19 18 16 15 15 17
41 39 38 35 32 32 30 32 33 37 37 39 40 38 35 35 35 34 32 33 32 29 27 26 24 23 22 20 19 17 15 16
38 37 38 38 36 34 32 33 33 35 34 35 36 37 38 39 39 37 35 37 36 33 31 29 27 26 26 24 24 20 19 16
37 34 32 34 35 32 32 35 37 37 38 38 37 38 37 41 44 43 40 41 39 38 34 32 30 29 30 30 29 25 22 20
34 37 32 29 30 32 33 33 35 38 41 42 42 42 44 43 44 46 44 48 44 41 39 35 33 33 33 32 33 31 27 24
34 32 27 27 27 30 33 34 35 37 39 42 44 45 47 46 47 49 48 51 50 44 40 38 37 36 37 35 36 36 31 28
28 26 25 27 28 30 32 34 36 37 39 41 43 45 48 50 52 53 49 51 49 52 47 43 42 40 39 38 35 36 37 34
25 27 28 29 30 32 33 35 37 38 39 42 43 44 47 49 51 53 55 55 57 52 46 42 46 44 43 42 40 38 38 39
29 27 28 31 33 35 37 39 39 41 41 43 43 44 47 50 53 55 55 54 51 52 54 52 49 48 49 46 44 42 38 39
27 30 31 32 33 35 37 39 40 42 43 44 46 47 48 50 52 56 58 57 55 49 50 48 49 47 50 49 47 47 41 36
32 34 37 38 40 44 45 44 43 42 44 47 48 49 49 51 54 56 57 61 60 54 47 46 45 42 47 50 50 48 43 38

GFSFLT2_700_spd_120.txt.gz
Wind_Speed
22 23 21 26 32 31 29 28 26 22 19 17 17 17 17 14 12 12 11 12 12 11 11 11 10 11 11 10 11 9 7 7
22 26 23 24 32 34 33 31 30 26 22 19 18 18 18 17 15 12 12 12 12 12 12 12 11 12 12 11 12 12 9 8
25 26 29 25 27 34 35 34 32 30 26 22 20 19 18 18 17 15 13 13 11 11 11 12 11 12 13 12 13 14 12 11
26 25 29 33 27 29 36 36 34 33 30 26 22 20 19 19 19 19 17 15 13 11 11 12 12 12 13 14 14 15 14 13
30 30 34 34 32 28 31 37 37 35 33 29 25 23 22 22 21 21 19 17 15 13 12 12 13 13 13 14 16 16 16 13
37 30 30 28 29 30 30 35 38 37 35 32 29 27 26 24 23 22 22 20 18 17 15 15 15 14 14 14 15 17 15 14
40 37 29 28 28 27 30 33 36 38 37 35 34 32 29 28 26 25 24 23 23 20 19 18 18 16 15 14 15 17 16 14
39 37 35 30 28 28 34 36 32 36 38 38 39 37 35 32 31 29 26 25 25 24 21 21 20 19 17 16 16 15 14 13
37 35 36 32 31 27 33 28 42 43 39 49 44 41 39 38 35 33 29 27 26 26 24 24 22 20 19 18 17 17 15 12
36 34 33 33 36 35 35 36 30 37 47 48 61 56 37 34 34 34 32 32 30 30 28 26 25 23 20 19 18 19 17 13
36 33 35 34 36 36 34 35 36 35 40 44 61 53 49 41 35 34 33 34 35 34 32 30 26 25 22 22 21 21 19 17
39 37 35 34 32 35 39 40 39 38 39 37 38 37 27 53 42 41 36 38 38 37 36 35 31 27 25 24 24 24 23 21
32 33 38 40 38 38 39 39 37 37 38 39 37 36 35 36 40 48 40 38 41 41 40 38 36 31 30 29 27 28 27 24
41 40 41 38 39 41 41 38 36 37 39 40 42 41 39 40 40 42 46 49 48 46 46 42 40 38 36 31 31 30 29 27
41 40 36 36 38 40 39 37 35 34 36 39 42 44 45 45 45 46 44 44 47 49 45 44 48 40 38 38 38 33 27 27
32 32 32 32 35 34 36 36 34 34 35 36 37 42 45 47 47 48 49 48 49 44 44 45 46 53 47 42 42 36 31 31
22 23 26 30 34 36 36 36 37 37 36 38 39 39 40 44 47 49 51 51 50 51 49 50 46 45 46 44 47 39 35 33
18 21 27 29 32 35 37 38 38 39 40 42 41 41 41 42 45 48 50 52 53 51 50 52 51 48 46 38 52 42 36 38
17 22 26 30 33 37 40 42 42 43 43 43 44 44 44 44 46 48 51 52 54 55 54 53 53 51 45 45 46 45 38 40
19 23 29 34 35 37 39 42 44 45 45 45 45 45 45 45 47 50 52 54 54 54 58 57 53 50 48 47 46 44 45 46

GFSFLT2_700_spd_123.txt.gz
Wind_Speed
21 19 20 20 23 32 32 30 28 28 26 23 18 17 18 19 17 16 15 15 14 13 13 13 14 14 15 14 11 9 10 9
23 21 20 23 22 25 33 32 31 30 29 27 22 20 20 20 20 18 16 15 16 15 15 14 14 14 16 14 12 11 11 12
27 24 24 24 24 23 30 34 34 33 32 31 27 23 21 20 19 19 19 17 16 16 15 15 15 15 16 16 14 13 12 13
29 30 28 27 26 25 26 34 36 36 35 34 30 27 24 21 21 21 21 20 18 17 17 17 16 16 17 16 15 14 13 13
35 29 25 27 32 33 29 30 36 38 37 36 35 30 27 25 24 23 23 22 22 19 19 17 16 17 18 17 17 15 14 13
38 37 36 32 32 32 31 30 32 37 39 38 37 34 31 29 27 25 23 23 23 23 22 20 19 19 19 18 17 16 14 14
38 42 41 38 33 34 30 27 29 34 37 38 38 37 34 31 30 29 27 26 26 26 24 23 22 22 21 19 17 17 15 14
39 41 44 43 38 35 34 31 38 33 35 40 42 40 38 36 35 33 32 30 28 28 27 26 25 25 24 22 20 18 16 14
32 32 32 34 37 33 32 31 30 38 37 43 43 42 41 39 38 38 36 34 31 31 31 29 29 27 26 24 23 21 19 17
32 30 31 31 33 35 33 32 31 33 38 36 48 44 44 38 41 42 40 38 36 35 34 32 31 29 27 25 26 24 22 20
34 27 28 30 31 32 30 31 32 33 35 36 37 37 46 50 55 57 50 45 41 40 38 35 36 32 31 28 27 27 25 23
34 31 25 30 34 31 31 32 33 35 39 41 43 38 40 46 51 58 75 71 41 41 40 39 39 37 35 31 29 29 29 28
38 34 32 29 35 35 33 36 37 38 41 43 44 40 43 46 46 45 30 45 51 41 39 40 42 42 40 38 36 33 32 31
41 38 38 37 37 38 36 36 39 41 46 42 41 43 45 45 46 39 37 41 61 60 55 52 51 47 46 43 42 40 37 31
41 40 43 43 44 43 41 40 40 41 39 39 39 42 44 46 46 43 40 38 42 45 54 54 56 54 53 51 44 39 38 33
34 33 36 40 42 42 42 40 41 41 39 38 38 38 41 46 46 47 46 46 48 47 46 44 52 51 48 46 33 41 32 41
41 32 30 33 36 37 37 38 42 44 40 41 40 39 37 40 45 47 48 49 50 50 51 49 50 48 46 39 52 42 33 40
23 23 21 24 25 27 32 40 42 43 42 41 41 41 40 38 41 46 48 48 49 51 53 52 50 49 48 48 46 41 38 36
17 18 20 20 22 26 31 34 40 42 44 44 43 43 43 43 43 44 46 48 50 50 51 53 53 52 51 48 46 43 38 38
13 16 22 24 27 31 34 37 40 44 46 46 46 45 44 43 44 44 45 47 49 51 52 52 52 52 52 50 50 48 42 42

GFSFLT2_700_spd_129.txt.gz
Wind_Speed
13 12 12 13 12 11 15 19 24 28 27 25 24 23 22 20 19 17 16 14 12 13 12 11 10 9 9 8 7 6 7 9
17 17 16 14 14 16 16 19 22 28 30 29 27 26 26 24 22 20 18 17 14 13 13 13 11 11 10 9 9 8 8 10
21 18 20 19 17 16 16 17 20 25 31 32 30 29 28 27 26 24 21 20 19 16 16 15 13 12 11 11 10 9 9 10
24 24 22 22 21 20 19 18 17 22 29 33 32 31 31 30 29 27 26 24 22 23 20 19 17 14 13 12 11 12 11 11
27 27 27 25 24 25 24 24 24 21 25 31 34 34 33 32 31 31 30 28 27 26 24 23 19 17 16 15 14 14 13 12
29 28 28 28 28 28 29 31 29 25 24 27 34 37 34 33 33 33 32 32 30 29 29 27 24 21 21 19 17 16 15 15
27 25 24 25 27 29 31 31 31 30 29 28 28 35 38 38 36 36 36 35 32 33 31 29 29 27 26 23 21 21 19 18
28 21 22 23 25 26 27 26 26 25 26 26 26 27 36 39 39 40 36 34 38 37 34 32 31 30 29 27 27 25 24 22
23 23 22 23 24 25 27 24 19 22 24 23 26 26 28 33 38 34 39 44 49 38 39 37 38 33 33 32 31 30 28 27
23 24 25 24 24 23 24 23 19 20 22 23 25 25 23 25 26 34 47 42 51 45 39 37 41 37 36 34 34 34 34 32
25 24 25 27 25 24 22 21 20 21 21 22 22 23 23 22 23 22 27 38 37 51 51 48 51 40 39 42 41 36 35 34
22 24 26 28 26 25 24 26 23 21 21 22 23 24 26 25 25 28 30 33 37 34 40 47 41 43 44 48 46 43 38 38
24 24 25 28 29 28 27 27 29 28 26 27 27 27 28 29 31 30 28 30 33 31 37 40 41 42 46 50 53 46 53 47
25 26 27 28 29 30 30 29 31 34 34 34 34 34 34 35 35 34 33 32 31 35 37 40 41 41 45 51 54 57 58 61
27 28 29 30 31 32 31 32 34 37 38 39 40 41 40 40 37 37 38 38 34 34 36 39 42 43 47 48 50 58 56 55
28 29 30 32 34 36 36 35 36 38 37 39 41 45 45 43 41 41 43 42 40 38 38 38 39 40 44 46 48 45 39 46
28 32 33 35 35 33 34 34 38 40 41 43 40 43 43 44 46 47 45 44 43 42 44 42 40 39 40 40 39 43 50 41
19 26 33 38 39 39 39 42 43 43 43 47 45 44 43 44 46 49 49 45 45 44 45 48 45 42 40 39 40 41 45 42
14 19 22 19 25 35 40 42 45 43 42 45 43 41 42 44 46 51 50 48 46 46 46 48 49 46 44 43 42 43 44 45
18 19 23 25 26 24 27 30 33 44 46 41 43 45 43 47 50 50 49 50 49 49 48 48 50 51 48 47 46 45 46 46

GFSFLT2_700_spd_135.txt.gz
Wind_Speed
12 12 12 11 10 9 10 12 13 17 20 22 23 23 23 22 21 21 19 16 16 13 10 9 7 6 7 7 8 9 10 13
15 14 14 15 14 12 12 12 14 16 18 21 24 26 26 26 25 25 22 21 19 18 16 13 11 9 9 9 9 10 11 13
19 19 19 19 20 20 17 16 16 16 17 19 21 24 27 29 29 28 27 25 22 21 20 19 16 14 13 12 12 12 13 14
25 25 24 23 22 24 23 23 21 21 20 20 19 21 24 28 31 30 29 29 27 25 25 23 22 19 16 17 15 15 15 13
32 32 30 29 27 27 25 25 28 25 24 23 23 22 23 25 29 31 31 33 31 30 28 28 26 24 22 20 18 18 18 16
33 33 33 33 32 32 33 30 27 27 28 27 28 25 26 26 29 31 32 33 32 34 32 33 30 27 25 25 22 22 22 18
29 28 28 28 29 30 32 30 30 30 30 29 28 29 30 29 30 30 31 34 36 36 37 37 33 30 30 27 29 26 30 27
29 27 27 26 27 28 29 28 28 28 29 29 29 30 31 31 33 32 31 33 36 39 41 41 35 32 32 29 31 30 33 30
30 29 29 28 26 27 28 28 28 29 29 29 29 31 33 33 32 32 32 33 35 37 38 45 36 34 33 30 33 33 33 35
30 32 31 32 30 30 31 30 30 29 29 27 25 27 29 31 33 33 32 31 34 35 34 38 22 31 30 41 35 37 39 49
23 26 30 31 32 33 33 33 34 33 32 29 26 25 27 28 29 31 32 33 33 30 27 25 26 28 30 33 40 39 45 48
19 20 22 26 30 31 32 32 33 35 35 32 29 27 26 28 29 28 27 28 30 31 27 28 28 30 32 35 35 38 41 45
17 19 20 24 27 30 32 33 34 34 36 35 35 31 30 29 30 31 31 32 33 33 34 32 31 30 32 34 37 38 42 41
18 19 21 22 24 27 30 31 33 34 34 35 35 34 33 33 34 35 37 37 36 37 37 35 36 34 34 35 37 38 42 40
18 19 21 21 23 25 27 30 33 36 36 37 36 37 37 38 38 39 39 41 43 42 40 41 40 38 38 37 39 41 41 42
15 14 14 16 17 18 23 28 33 37 39 40 40 41 42 43 44 43 43 42 43 44 45 44 43 42 41 40 40 41 43 45
15 16 17 17 18 19 20 21 21 25 36 40 40 43 42 43 45 45 46 46 47 47 48 48 47 47 46 46 44 41 42 45
16 16 18 19 21 23 24 26 27 28 29 29 31 38 41 44 48 48 50 52 51 51 52 51 53 52 50 49 47 45 40 44
17 18 19 21 24 28 30 32 33 34 34 32 33 34 36 37 41 41 43 49 53 53 53 55 53 53 54 52 49 48 48 45
19 21 23 25 27 29 31 32 32 31 32 33 34 35 37 39 40 43 45 47 47 52 57 53 51 49 51 52 51 51 51 50

GFSFLT2_700_spd_138.txt.gz
Wind_Speed
12 12 12 12 13 13 12 12 13 14 15 16 18 19 21 22 22 21 20 18 16 16 13 12 11 10 10 10 10 11 11 13
15 16 15 15 16 17 17 16 15 16 16 18 18 19 21 23 24 24 23 23 21 20 19 18 15 14 13 12 12 12 13 14
24 22 21 20 19 19 21 22 19 19 19 19 19 19 20 22 24 26 26 26 25 24 24 23 22 20 17 16 15 14 15 16
31 27 24 25 22 23 23 24 23 23 23 23 22 21 21 22 23 25 27 29 28 28 28 28 28 25 22 21 18 18 17 18
29 30 31 29 28 27 26 18 21 22 21 24 26 25 25 25 25 25 26 27 29 31 33 33 32 30 28 27 25 23 20 19
31 30 31 30 29 29 27 32 31 30 30 30 28 27 26 26 26 26 26 27 29 31 35 36 38 36 33 32 29 25 23 21
30 28 27 27 27 27 29 32 31 31 31 30 30 29 27 27 28 29 29 30 31 32 34 36 40 40 38 35 31 28 26 21
30 28 27 26 25 27 29 31 32 31 31 31 30 29 29 28 29 31 34 36 34 34 35 37 43 41 41 38 32 29 29 25
31 30 30 29 28 27 28 29 31 32 32 31 30 31 30 29 31 33 33 36 38 37 36 38 44 51 36 22 29 29 29 30
29 30 29 29 31 30 31 31 32 34 34 32 32 31 31 29 31 34 34 32 37 39 36 34 44 34 46 39 30 29 35 32
25 26 27 28 28 32 32 32 34 36 36 34 33 33 32 29 30 32 32 33 35 38 39 34 31 28 23 16 25 32 39 35
22 22 23 25 27 28 29 29 31 35 36 34 34 34 32 32 32 32 32 33 35 34 32 30 28 27 25 22 23 28 31 36
20 19 21 23 25 27 30 31 32 36 36 37 36 37 37 36 35 35 34 33 34 36 34 32 30 30 30 28 27 27 29 37
18 18 18 20 21 23 28 30 33 36 37 40 37 40 40 39 38 38 38 37 37 39 40 37 34 34 36 35 34 32 31 31
15 15 16 17 19 21 23 26 29 32 36 40 40 43 41 43 44 44 41 42 42 43 44 45 39 36 38 38 39 40 37 36
18 18 18 17 17 18 19 19 20 22 24 28 35 41 44 46 49 48 47 47 47 47 46 47 48 40 39 40 42 42 39 43
16 17 19 19 19 20 21 22 25 27 29 30 31 32 31 35 44 47 49 51 52 54 53 51 50 49 48 44 43 46 45 45
18 21 21 20 21 22 24 27 29 31 32 33 35 36 36 35 36 37 39 44 49 52 53 54 55 57 54 51 50 48 47 48
20 22 21 22 23 25 27 29 31 33 33 34 34 34 35 35 36 38 39 41 42 43 45 46 48 52 57 54 51 50 52 49
22 23 23 24 26 27 29 31 33 35 36 35 34 33 33 33 33 37 39 40 42 43 46 48 49 50 50 53 57 55 50 50

GFSFLT2_700_spd_141.txt.gz
Wind_Speed
11 13 13 13 14 16 17 15 14 14 15 14 14 15 16 17 18 20 18 18 18 17 17 16 15 14 12 11 12 13 14 15
18 18 18 17 18 17 17 17 15 16 16 16 17 17 18 18 19 20 21 21 22 21 21 21 20 19 17 16 14 15 15 17
20 19 18 19 19 19 18 19 19 18 19 20 20 20 19 19 19 20 22 23 24 24 24 25 25 25 23 20 19 17 18 18
25 24 22 25 26 25 25 23 25 24 26 25 27 24 24 24 21 19 21 23 26 26 27 28 29 29 28 26 24 22 22 20
23 26 28 28 28 28 29 26 26 30 19 21 23 23 25 27 25 23 23 24 26 30 27 31 33 33 32 30 28 27 26 23
23 26 27 29 29 26 27 28 26 26 24 26 29 29 28 27 25 25 25 26 26 28 30 34 33 35 37 33 32 32 30 27
25 27 28 28 29 28 28 30 31 30 32 33 31 30 29 28 26 26 27 29 29 29 32 33 34 36 40 46 40 41 33 28
29 30 30 30 29 29 29 31 32 33 34 33 33 32 31 29 28 29 29 30 33 36 37 37 35 37 39 32 35 34 32 29
32 32 31 29 28 30 31 32 33 33 33 33 32 32 31 31 32 33 31 32 35 37 40 40 41 41 41 41 41 34 25 27
28 28 28 28 28 28 27 32 33 33 33 34 35 34 34 34 35 35 34 34 36 36 35 37 38 38 37 32 27 17 26 32
24 24 25 25 27 25 26 28 32 33 33 33 35 35 36 36 36 37 35 34 36 38 35 34 34 34 35 32 24 14 21 26
21 23 23 24 26 27 28 27 31 29 31 31 32 32 34 34 36 36 35 35 35 35 34 33 33 27 27 26 21 15 15 27
18 19 20 21 22 25 27 29 30 30 32 29 33 32 35 37 37 36 37 38 38 37 36 33 32 32 28 30 26 21 20 21
17 17 18 18 18 20 24 26 28 30 32 32 34 35 38 40 40 39 39 39 41 41 40 36 35 34 34 34 33 30 29 27
17 15 16 18 18 18 20 21 22 24 26 28 30 32 35 38 40 42 43 43 44 46 46 44 40 35 35 35 39 39 38 34
16 15 16 17 19 19 20 22 23 24 26 29 31 32 35 36 36 37 37 41 45 47 49 50 49 45 39 40 38 39 42 44
17 17 17 19 22 22 23 24 26 27 29 30 32 33 35 36 37 38 39 40 40 41 44 49 52 51 47 42 40 42 43 48
17 18 20 20 21 23 24 25 27 29 31 33 35 35 36 36 36 37 37 38 39 40 40 42 44 48 50 47 46 45 47 51
19 20 22 23 23 24 26 28 29 31 34 35 36 37 37 36 35 36 36 37 38 40 41 42 42 44 45 48 48 46 45 46
20 21 23 24 25 26 27 29 30 33 35 36 37 35 32 30 30 30 30 31 33 35 37 38 39 41 45 47 50 51 51 48